Year,Month,Day,Hour,Minute,Value (Times are PST for temperature in C)
2017,05,19,09,54,15.80
2017,05,19,09,55,16.00
2017,05,19,09,56,16.10
2017,05,19,09,57,16.00
2017,05,19,09,58,15.90
2017,05,19,09,59,15.90
2017,05,19,10,00,15.80
2017,05,19,10,01,15.80
2017,05,19,10,02,15.90
2017,05,19,10,03,15.90
2017,05,19,10,04,15.90
2017,05,19,10,05,15.80
2017,05,19,10,06,15.80
2017,05,19,10,07,15.70
2017,05,19,10,08,15.70
2017,05,19,10,09,15.70
2017,05,19,10,10,15.80
2017,05,19,10,11,15.80
2017,05,19,10,12,15.80
2017,05,19,10,13,15.80
2017,05,19,10,14,15.80
2017,05,19,10,15,15.80
2017,05,19,10,16,15.80
2017,05,19,10,17,15.80
2017,05,19,10,18,15.90
2017,05,19,10,19,16.10
2017,05,19,10,20,16.20
2017,05,19,10,21,16.20
2017,05,19,10,22,16.40
2017,05,19,10,23,16.40
2017,05,19,10,24,16.30
2017,05,19,10,25,16.30
2017,05,19,10,26,16.30
2017,05,19,10,27,16.20
2017,05,19,10,28,16.10
2017,05,19,10,29,16.00
2017,05,19,10,30,15.80
2017,05,19,10,31,15.80
2017,05,19,10,32,15.80
2017,05,19,10,33,15.80
2017,05,19,10,34,15.80
2017,05,19,10,35,15.80
2017,05,19,10,36,15.80
2017,05,19,10,37,15.70
2017,05,19,10,38,15.70
2017,05,19,10,39,15.60
2017,05,19,10,40,15.40
2017,05,19,10,41,15.20
2017,05,19,10,42,15.10
2017,05,19,10,43,15.10
2017,05,19,10,44,15.10
2017,05,19,10,45,15.10
2017,05,19,10,46,15.30
2017,05,19,10,47,15.30
2017,05,19,10,48,15.40
2017,05,19,10,49,15.40
2017,05,19,10,50,15.30
2017,05,19,10,51,15.30
2017,05,19,10,52,15.30
2017,05,19,10,53,15.30
2017,05,19,10,54,15.40
2017,05,19,10,55,15.40
2017,05,19,10,56,15.30
2017,05,19,10,57,15.30
2017,05,19,10,58,15.30
2017,05,19,10,59,15.10
2017,05,19,11,00,15.00
2017,05,19,11,01,14.90
2017,05,19,11,02,14.90
2017,05,19,11,03,14.90
2017,05,19,11,04,15.10
2017,05,19,11,05,15.10
2017,05,19,11,06,15.20
2017,05,19,11,07,15.30
2017,05,19,11,08,15.30
2017,05,19,11,09,15.40
2017,05,19,11,10,15.40
2017,05,19,11,11,15.50
2017,05,19,11,12,15.50
2017,05,19,11,13,15.60
2017,05,19,11,14,15.70
2017,05,19,11,15,15.80
2017,05,19,11,16,15.90
2017,05,19,11,17,15.90
2017,05,19,11,18,15.90
2017,05,19,11,19,15.90
2017,05,19,11,20,16.10
2017,05,19,11,21,16.00
2017,05,19,11,22,15.90
2017,05,19,11,23,15.90
2017,05,19,11,24,15.90
2017,05,19,11,25,16.00
2017,05,19,11,26,15.90
2017,05,19,11,27,15.80
2017,05,19,11,28,15.80
2017,05,19,11,29,15.90
2017,05,19,11,30,15.90
2017,05,19,11,31,16.00
2017,05,19,11,32,16.10
2017,05,19,11,33,16.10
2017,05,19,11,34,16.10
2017,05,19,11,35,16.10
2017,05,19,11,36,16.10
2017,05,19,11,37,16.10
2017,05,19,11,38,16.10
2017,05,19,11,39,16.30
2017,05,19,11,40,16.40
2017,05,19,11,41,16.60
2017,05,19,11,42,16.70
2017,05,19,11,43,16.80
2017,05,19,11,44,16.80
2017,05,19,11,45,16.80
2017,05,19,11,46,16.70
2017,05,19,11,47,16.70
2017,05,19,11,48,16.80
2017,05,19,11,49,16.70
2017,05,19,11,50,16.60
2017,05,19,11,51,16.60
2017,05,19,11,52,16.50
2017,05,19,11,53,16.60
2017,05,19,11,54,16.70
2017,05,19,11,55,16.70
2017,05,19,11,56,16.70
2017,05,19,11,57,16.70
2017,05,19,11,58,16.70
2017,05,19,11,59,16.80
2017,05,19,12,00,16.90
2017,05,19,12,01,16.80
2017,05,19,12,02,16.80
2017,05,19,12,03,16.80
2017,05,19,12,04,16.80
2017,05,19,12,05,16.70
2017,05,19,12,06,16.70
2017,05,19,12,07,16.70
2017,05,19,12,08,16.60
2017,05,19,12,09,16.60
2017,05,19,12,10,16.70
2017,05,19,12,11,16.80
2017,05,19,12,12,16.80
2017,05,19,12,13,16.80
2017,05,19,12,14,16.90
2017,05,19,12,15,16.80
2017,05,19,12,16,16.70
2017,05,19,12,17,16.70
2017,05,19,12,18,16.70
2017,05,19,12,19,16.60
2017,05,19,12,20,16.60
2017,05,19,12,21,16.70
2017,05,19,12,22,16.60
2017,05,19,12,23,16.60
2017,05,19,12,24,16.40
2017,05,19,12,25,16.40
2017,05,19,12,26,16.40
2017,05,19,12,27,16.30
2017,05,19,12,28,16.30
2017,05,19,12,29,16.40
2017,05,19,12,30,16.50
2017,05,19,12,31,16.50
2017,05,19,12,32,16.60
2017,05,19,12,33,16.60
2017,05,19,12,34,16.60
2017,05,19,12,35,16.60
2017,05,19,12,36,16.70
2017,05,19,12,37,16.70
2017,05,19,12,38,16.70
2017,05,19,12,39,16.80
2017,05,19,12,40,16.70
2017,05,19,12,41,16.70
2017,05,19,12,42,16.70
2017,05,19,12,43,16.90
2017,05,19,12,44,16.90
2017,05,19,12,45,16.80
2017,05,19,12,46,16.80
2017,05,19,12,47,16.80
2017,05,19,12,48,16.80
2017,05,19,12,49,16.90
2017,05,19,12,50,16.90
2017,05,19,12,51,16.90
2017,05,19,12,52,16.80
2017,05,19,12,53,16.80
2017,05,19,12,54,16.80
2017,05,19,12,55,16.80
2017,05,19,12,56,16.90
2017,05,19,12,57,17.10
2017,05,19,12,58,17.30
2017,05,19,12,59,17.30
2017,05,19,13,00,17.30
2017,05,19,13,01,17.00
2017,05,19,13,02,16.90
2017,05,19,13,03,16.70
2017,05,19,13,04,16.60
2017,05,19,13,05,16.60
2017,05,19,13,06,16.40
2017,05,19,13,07,16.50
2017,05,19,13,08,16.60
2017,05,19,13,09,16.60
2017,05,19,13,10,16.70
2017,05,19,13,11,16.70
2017,05,19,13,12,16.70
2017,05,19,13,13,16.70
2017,05,19,13,14,16.70
2017,05,19,13,15,16.90
2017,05,19,13,16,17.00
2017,05,19,13,17,17.00
2017,05,19,13,18,17.20
2017,05,19,13,19,17.30
2017,05,19,13,20,17.60
2017,05,19,13,21,17.70
2017,05,19,13,22,17.80
2017,05,19,13,23,17.80
2017,05,19,13,24,17.70
2017,05,19,13,25,17.60
2017,05,19,13,26,17.50
2017,05,19,13,27,17.60
2017,05,19,13,28,17.80
2017,05,19,13,29,17.70
2017,05,19,13,30,17.70
2017,05,19,13,31,17.60
2017,05,19,13,32,17.40
2017,05,19,13,33,17.30
2017,05,19,13,34,17.30
2017,05,19,13,35,17.30
2017,05,19,13,36,17.50
2017,05,19,13,37,17.60
2017,05,19,13,38,17.60
2017,05,19,13,39,17.50
2017,05,19,13,40,17.40
2017,05,19,13,41,17.20
2017,05,19,13,42,17.00
2017,05,19,13,43,16.90
2017,05,19,13,44,16.90
2017,05,19,13,45,16.90
2017,05,19,13,46,16.80
2017,05,19,13,47,16.80
2017,05,19,13,48,16.90
2017,05,19,13,49,16.90
2017,05,19,13,50,17.00
2017,05,19,13,51,17.00
2017,05,19,13,52,17.20
2017,05,19,13,53,17.30
2017,05,19,13,54,17.30
2017,05,19,13,55,17.30
2017,05,19,13,56,17.30
2017,05,19,13,57,17.30
2017,05,19,13,58,17.30
2017,05,19,13,59,17.20
2017,05,19,14,00,17.30
2017,05,19,14,01,17.30
2017,05,19,14,02,17.20
2017,05,19,14,03,17.10
2017,05,19,14,04,17.10
2017,05,19,14,05,17.10
2017,05,19,14,06,17.20
2017,05,19,14,07,17.20
2017,05,19,14,08,17.30
2017,05,19,14,09,17.30
2017,05,19,14,10,17.40
2017,05,19,14,13,17.80
2017,05,19,14,14,17.90
2017,05,19,14,15,17.90
2017,05,19,14,16,18.00
2017,05,19,14,17,18.10
2017,05,19,14,18,18.10
2017,05,19,14,19,18.20
2017,05,19,14,20,18.20
2017,05,19,14,21,18.10
2017,05,19,14,22,17.90
2017,05,19,14,23,17.80
2017,05,19,14,24,17.80
2017,05,19,14,25,17.90
2017,05,19,14,26,18.00
2017,05,19,14,27,18.00
2017,05,19,14,28,17.90
2017,05,19,14,29,17.90
2017,05,19,14,30,18.10
2017,05,19,14,31,18.30
2017,05,19,14,32,18.30
2017,05,19,14,33,18.20
2017,05,19,14,34,18.20
2017,05,19,14,35,18.20
2017,05,19,14,36,18.20
2017,05,19,14,37,18.00
2017,05,19,14,38,17.90
2017,05,19,14,39,18.10
2017,05,19,14,40,18.00
2017,05,19,14,41,17.90
2017,05,19,14,42,17.90
2017,05,19,14,43,17.90
2017,05,19,14,44,17.90
2017,05,19,14,45,17.90
2017,05,19,14,46,17.90
2017,05,19,14,47,18.10
2017,05,19,14,48,18.20
2017,05,19,14,49,18.20
2017,05,19,14,50,18.20
2017,05,19,14,51,18.00
2017,05,19,14,52,17.90
2017,05,19,14,53,17.80
2017,05,19,14,54,17.70
2017,05,19,14,55,17.70
2017,05,19,14,56,17.60
2017,05,19,14,57,17.70
2017,05,19,14,58,17.80
2017,05,19,14,59,17.80
2017,05,19,15,00,17.70
2017,05,19,15,01,17.50
2017,05,19,15,02,17.50
2017,05,19,15,03,17.50
2017,05,19,15,04,17.50
2017,05,19,15,05,17.50
2017,05,19,15,06,17.50
2017,05,19,15,07,17.60
2017,05,19,15,08,17.60
2017,05,19,15,09,17.60
2017,05,19,15,10,17.60
2017,05,19,15,11,17.50
2017,05,19,15,12,17.30
2017,05,19,15,13,17.30
2017,05,19,15,14,17.30
2017,05,19,15,15,17.20
2017,05,19,15,16,17.20
2017,05,19,15,17,17.10
2017,05,19,15,18,17.10
2017,05,19,15,19,17.20
2017,05,19,15,20,17.20
2017,05,19,15,21,17.20
2017,05,19,15,22,17.20
2017,05,19,15,23,17.00
2017,05,19,15,24,17.00
2017,05,19,15,25,17.00
2017,05,19,15,26,17.00
2017,05,19,15,27,17.00
2017,05,19,15,28,17.00
2017,05,19,15,29,17.00
2017,05,19,15,30,17.10
2017,05,19,15,31,17.00
2017,05,19,15,32,16.90
2017,05,19,15,33,17.00
2017,05,19,15,34,17.00
2017,05,19,15,35,17.00
2017,05,19,15,36,17.10
2017,05,19,15,37,17.10
2017,05,19,15,38,17.20
2017,05,19,15,39,17.20
2017,05,19,15,40,17.20
2017,05,19,15,41,17.20
2017,05,19,15,42,17.20
2017,05,19,15,43,17.10
2017,05,19,15,44,17.10
2017,05,19,15,45,17.10
2017,05,19,15,46,17.10
2017,05,19,15,47,17.10
2017,05,19,15,48,17.10
2017,05,19,15,49,17.20
2017,05,19,15,50,17.20
2017,05,19,15,51,17.20
2017,05,19,15,52,17.20
2017,05,19,15,53,17.30
2017,05,19,15,54,17.30
2017,05,19,15,55,17.30
2017,05,19,15,56,17.20
2017,05,19,15,57,17.30
2017,05,19,15,58,17.20
2017,05,19,15,59,17.20
2017,05,19,16,00,17.20
2017,05,19,16,01,17.20
2017,05,19,16,02,17.20
2017,05,19,16,03,17.20
2017,05,19,16,04,17.20
2017,05,19,16,05,17.20
2017,05,19,16,06,17.20
2017,05,19,16,07,17.20
2017,05,19,16,08,17.20
2017,05,19,16,09,17.10
2017,05,19,16,10,17.10
2017,05,19,16,11,17.10
2017,05,19,16,12,17.10
2017,05,19,16,13,17.10
2017,05,19,16,14,17.10
2017,05,19,16,15,17.00
2017,05,19,16,16,17.00
2017,05,19,16,17,17.10
2017,05,19,16,18,17.10
2017,05,19,16,19,17.20
2017,05,19,16,20,17.20
2017,05,19,16,21,17.20
2017,05,19,16,22,17.10
2017,05,19,16,23,17.10
2017,05,19,16,24,17.10
2017,05,19,16,25,17.10
2017,05,19,16,26,17.10
2017,05,19,16,27,17.10
2017,05,19,16,28,17.00
2017,05,19,16,29,17.00
2017,05,19,16,30,17.00
2017,05,19,16,31,16.90
2017,05,19,16,32,16.90
2017,05,19,16,33,16.90
2017,05,19,16,34,16.90
2017,05,19,16,35,16.90
2017,05,19,16,36,16.90
2017,05,19,16,37,16.80
2017,05,19,16,38,16.80
2017,05,19,16,39,16.70
2017,05,19,16,40,16.70
2017,05,19,16,41,16.70
2017,05,19,16,42,16.80
2017,05,19,16,43,16.80
2017,05,19,16,44,16.80
2017,05,19,16,45,16.90
2017,05,19,16,46,16.90
2017,05,19,16,47,16.80
2017,05,19,16,48,16.70
2017,05,19,16,49,16.70
2017,05,19,16,50,16.70
2017,05,19,16,51,16.70
2017,05,19,16,52,16.70
2017,05,19,16,53,16.70
2017,05,19,16,54,16.70
2017,05,19,16,55,16.80
2017,05,19,16,56,16.70
2017,05,19,16,57,16.80
2017,05,19,16,58,16.80
2017,05,19,16,59,16.80
2017,05,19,17,00,16.80
2017,05,19,17,01,16.80
2017,05,19,17,02,16.80
2017,05,19,17,03,16.90
2017,05,19,17,04,16.90
2017,05,19,17,05,17.00
2017,05,19,17,06,17.00
2017,05,19,17,07,17.00
2017,05,19,17,08,17.00
2017,05,19,17,09,17.00
2017,05,19,17,10,17.00
2017,05,19,17,11,16.90
2017,05,19,17,12,16.90
2017,05,19,17,13,16.80
2017,05,19,17,14,16.80
2017,05,19,17,15,16.80
2017,05,19,17,16,16.80
2017,05,19,17,17,16.80
2017,05,19,17,18,16.80
2017,05,19,17,19,16.90
2017,05,19,17,20,16.90
2017,05,19,17,21,16.90
2017,05,19,17,22,16.90
2017,05,19,17,23,16.90
2017,05,19,17,24,16.90
2017,05,19,17,25,16.90
2017,05,19,17,26,16.90
2017,05,19,17,27,17.00
2017,05,19,17,28,17.00
2017,05,19,17,29,17.00
2017,05,19,17,30,16.90
2017,05,19,17,31,16.90
2017,05,19,17,32,17.00
2017,05,19,17,33,17.00
2017,05,19,17,34,17.00
2017,05,19,17,35,17.00
2017,05,19,17,36,17.00
2017,05,19,17,37,17.00
2017,05,19,17,38,17.00
2017,05,19,17,39,17.00
2017,05,19,17,40,17.00
2017,05,19,17,41,17.00
2017,05,19,17,42,16.90
2017,05,19,17,43,16.90
2017,05,19,17,44,16.90
2017,05,19,17,45,16.90
2017,05,19,17,46,17.00
2017,05,19,17,47,17.00
2017,05,19,17,48,17.10
2017,05,19,17,49,17.10
2017,05,19,17,50,17.10
2017,05,19,17,51,17.10
2017,05,19,17,52,17.10
2017,05,19,17,53,17.10
2017,05,19,17,54,17.10
2017,05,19,17,55,17.10
2017,05,19,17,56,17.10
2017,05,19,17,57,17.20
2017,05,19,17,58,17.20
2017,05,19,17,59,17.30
2017,05,19,18,00,17.30
2017,05,19,18,01,17.30
2017,05,19,18,02,17.30
2017,05,19,18,03,17.30
2017,05,19,18,04,17.30
2017,05,19,18,05,17.30
2017,05,19,18,06,17.30
2017,05,19,18,07,17.30
2017,05,19,18,08,17.30
2017,05,19,18,09,17.30
2017,05,19,18,10,17.30
2017,05,19,18,11,17.30
2017,05,19,18,12,17.30
2017,05,19,18,13,17.30
2017,05,19,18,14,17.30
2017,05,19,18,15,17.30
2017,05,19,18,16,17.30
2017,05,19,18,17,17.30
2017,05,19,18,18,17.30
2017,05,19,18,19,17.30
2017,05,19,18,20,17.30
2017,05,19,18,21,17.30
2017,05,19,18,22,17.30
2017,05,19,18,23,17.30
2017,05,19,18,24,17.30
2017,05,19,18,25,17.30
2017,05,19,18,26,17.30
2017,05,19,18,27,17.30
2017,05,19,18,28,17.30
2017,05,19,18,29,17.30
2017,05,19,18,30,17.30
2017,05,19,18,31,17.30
2017,05,19,18,32,17.30
2017,05,19,18,33,17.30
2017,05,19,18,34,17.30
2017,05,19,18,35,17.30
2017,05,19,18,36,17.30
2017,05,19,18,37,17.30
2017,05,19,18,38,17.30
2017,05,19,18,39,17.30
2017,05,19,18,40,17.30
2017,05,19,18,41,17.30
2017,05,19,18,42,17.30
2017,05,19,18,43,17.30
2017,05,19,18,44,17.30
2017,05,19,18,45,17.30
2017,05,19,18,46,17.30
